Header for Extended Forecast Station List Page

Search by: ID | Name | Date | Parm | Value | Avg | % Avg
Sort by: ID | Name | Date | Parm | Value | Avg | % Avg

Enter search or view all records.

Click on id for station plot
#IDNameDateParmValueAvg% Avg
0ABOM8CLARK FORK-ABOVE MISSOULA01-18-2022DISCHARGE (KAF)47965273
1AFRI1SNAKE-AMERICAN FALLS RESERVOIR01-18-2022INFLOW (KAF)15841445110
2ALFW1PEND OREILLE-ALBENI FALLS DAM01-18-2022INFLOW (KAF)5014593185
3ALPW4SNAKE-NEAR ALPINE01-18-2022DISCHARGE (KAF)50863580
4ANAW1SNAKE-NEAR ANATONE01-18-2022DISCHARGE (KAF)6474844477
5ANTI1HENRYS FORK-AT ST. ANTHONY01-18-2022DISCHARGE (KAF)41948287
6ARAI1SF BOISE-ANDERSON RANCH DAM01-18-2022INFLOW (KAF)238232102
7ARDW1ENTIAT-NEAR ARDENVOIR01-18-2022DISCHARGE (KAF)7666116
8BELM8CLARK FORK-BELOW MISSOULA01-18-2022DISCHARGE (KAF)832113673
9BERO3MALHEUR-AGENCY VALLEY DAM01-18-2022INFLOW (KAF)384584
10BFEI1KOOTENAI-AT BONNERS FERRY01-18-2022STAGE (FT)MMM
11BFTI1SNAKE-NEAR BLACKFOOT01-18-2022DISCHARGE (KAF)979795123
12BIGI1BOISE-AT GLENWOOD BRIDGE01-18-2022DISCHARGE (KAF)291140208
13BITM8BITTERROOT-NEAR MISSOULA01-18-2022DISCHARGE (KAF)35445777
14BONM8BLACKFOOT-NEAR BONNER01-18-2022DISCHARGE (KAF)27435877
15BONO3COLUMBIA-BONNEVILLE DAM01-18-2022INFLOW (KAF)4792947069102
16BRNI1SNAKE-BROWNLEE DAM01-18-2022INFLOW (KAF)3825396197
17BUDW1BUMPING-BUMPING LAKE DAM01-18-2022INFLOW (KAF)7262116
18BULO3BULLY CREEK-BULLY CREEK DAM01-18-2022INFLOW (KAF)105186
19CABI1CLARK FORK-CABINET GORGE DAM01-18-2022INFLOW (KAF)4009499980
20CFMM8FLATHEAD-AT COLUMBIA FALLS01-18-2022DISCHARGE (KAF)19891951102
21CHDW1CHELAN-LAKE CHELAN DAM01-18-2022INFLOW (KAF)38141891
22CHEI1FALL RIVER-NEAR CHESTER01-18-2022DISCHARGE (KAF)16918492
23CHJW1COLUMBIA-CHIEF JOSEPH DAM01-18-2022INFLOW (KAF)2886325457113
24CIBW1COLUMBIA-AT INTL BOUNDARY01-18-2022DISCHARGE (KAF)2356119648120
25CLFW1NACHES-NEAR CLIFFDEL01-18-2022DISCHARGE (KAF)21623293
26CLUW1CLE ELUM-CLE ELUM LAKE01-18-2022INFLOW (KAF)245211116
27COEI1COEUR D ALENE-COEUR D ALENE LAKE01-18-2022INFLOW (KAF)25082276110
28CSDI1NF PAYETTE-CASCADE DAM01-18-2022INFLOW (KAF)22125985
29DEDI1DEADWOOD-NEAR LOWMAN01-18-2022INFLOW (KAF)405573
30DLGM8CLARK FORK-AT DEER LODGE01-18-2022DISCHARGE (KAF)465880
31DRMM8CLARK FORK-NR DRUMMOND01-18-2022DISCHARGE (KAF)11415872
32DWRI1NF CLEARWATER-DWORSHAK DAM01-18-2022INFLOW (KAF)20491721119
33EASW1YAKIMA-AT EASTON01-18-2022DISCHARGE (KAF)11899119
34EMMI1PAYETTE-NEAR EMMETT01-18-2022DISCHARGE (KAF)63471089
35FCFM8NF FLATHEAD-NEAR COLUMBIA FALLS01-18-2022DISCHARGE (KAF)586560105
36GCDW1COLUMBIA-GRAND COULEE DAM01-18-2022INFLOW (KAF)2696622876118
37GIBO3UMATILLA-NEAR GIBBON01-18-2022DISCHARGE (KAF)9388106
38HALI1BIG WOOD-AT HAILEY01-18-2022DISCHARGE (KAF)448055
39HEII1SNAKE-NEAR HEISE01-18-2022DISCHARGE (KAF)11151025109
40HHWM8SF FLATHEAD-HUNGRY HORSE DAM01-18-2022INFLOW (KAF)65477085
41HODO3HOOD-NEAR TUCKER BRIDGE01-18-2022DISCHARGE (KAF)329270122
42HOPI1PEND OREILLE-PEND OREILLE LAKE NR HOPE01-18-2022LAKE ELEVATION (FT)MMM
43HOTI1BRUNEAU-NEAR HOT SPRINGS01-18-2022DISCHARGE (KAF)689274
44HWRI1BIG LOST-AT HOWELL RANCH NEAR CHILLY01-18-2022DISCHARGE (KAF)233565
45IHDW1SNAKE-ICE HARBOR DAM01-18-2022INFLOW (KAF)121671320392
46IPDI1HENRYS FORK-ISLAND PARK DAM01-18-2022INFLOW (KAF)11913588
47JDAO3COLUMBIA-JOHN DAY DAM01-18-2022INFLOW (KAF)4621144517104
48JKSW4SNAKE-NEAR JACKSON01-18-2022DISCHARGE (KAF)35949073
49JLKW4SNAKE-JACKSON LAKE AT DAM01-18-2022INFLOW (KAF)18125272
50KADW1KACHESS-KACHESS DAM01-18-2022INFLOW (KAF)9379118
51KEDW1YAKIMA-KEECHELUS LAKE01-18-2022INFLOW (KAF)10584126
52KERM8FLATHEAD-SELI’Š KSANKA QLISPE’ DAM01-18-2022INFLOW (KAF)2187253086
53KIOW1YAKIMA-AT KIONA01-18-2022DISCHARGE (KAF)97399098
54LAUW1KETTLE-AT LAURIER01-18-2022DISCHARGE (KAF)70684683
55LEOI1KOOTENAI-AT LEONIA01-18-2022DISCHARGE (KAF)37112165171
56LGDW1SNAKE-LOWER GRANITE DAM01-18-2022INFLOW (KAF)117561295791
57LGSW1SNAKE-LITTLE GOOSE DAM01-18-2022INFLOW (KAF)117581300690
58LLKW1SPOKANE-AT LONGLAKE01-18-2022INFLOW (KAF)26602641101
59LMNW1SNAKE-LOWER MONUMENTAL DAM01-18-2022INFLOW (KAF)121601318792
60LUCI1BOISE-LUCKY PEAK DAM01-18-2022INFLOW (KAF)680599113
61LWRI1LITTLE WOOD-LITTLE WOOD DAM01-18-2022INFLOW (KAF)4235122
62LYDM8KOOTENAI-LIBBY DAM01-18-2022INFLOW (KAF)16871648102
63MACI1BIG LOST-MACKAY RESERVOIR NEAR MACKAY01-18-2022INFLOW (KAF)293878
64MAGI1BIG WOOD-MAGIC DAM01-18-2022INFLOW (KAF)669668
65MCDW1COLUMBIA-MCNARY DAM01-18-2022INFLOW (KAF)4428142457104
66MILI1SNAKE-AT MILNER01-18-2022DISCHARGE (KAF)M54M
67MODO3DESCHUTES-AT MOODY NR BIGGS01-18-2022DISCHARGE (KAF)14901471101
68MONO3NF JOHN DAY-AT MONUMENT01-18-2022DISCHARGE (KAF)41151380
69MYKO3MCKAY CREEK-NEAR PILOT ROCK01-18-2022DISCHARGE (KAF)394489
70NACW1NACHES-NEAR NACHES01-18-2022DISCHARGE (KAF)30333391
71NOXM8CLARK FORK-NOXON RAPIDS DAM01-18-2022INFLOW (KAF)3594436682
72ORFI1CLEARWATER-AT OROFINO01-18-2022DISCHARGE (KAF)26362498106
73OWYO3OWYHEE-OWYHEE DAM01-18-2022INFLOW (KAF)354248143
74PARI1BOISE-NEAR PARMA01-18-2022DISCHARGE (KAF)407221184
75PARW1YAKIMA-NEAR PARKER01-18-2022DISCHARGE (KAF)66167997
76PATW1METHOW-NEAR PATEROS01-18-2022DISCHARGE (KAF)351332106
77PDTO3UMATILLA-AT PENDLETON01-18-2022DISCHARGE (KAF)231203114
78PESW1WENATCHEE-AT PESHASTIN01-18-2022DISCHARGE (KAF)664652102
79PIHI1PORTNEUF-AT POCATELLO01-18-2022DISCHARGE (KAF)697295
80PITW1KLICKITAT-NEAR PITT01-18-2022DISCHARGE (KAF)514484106
81PLDI1SF SNAKE-PALISADES DAM01-18-2022INFLOW (KAF)836106778
82PRTI1PRIEST-NEAR PRIEST RIVER01-18-2022DISCHARGE (KAF)41847588
83PRWW1COLUMBIA-PRIEST RAPIDS DAM01-18-2022INFLOW (KAF)3108828123111
84RCCM8ROCK CREEK-NEAR CLINTON01-18-2022DISCHARGE (KAF)689969
85REXI1HENRYS FORK-AT REXBURG01-18-2022DISCHARGE (KAF)45552287
86RIDI1WILLOW CREEK-RIRIE DAM01-18-2022INFLOW (KAF)4632146
87RILW1TIETON-RIMROCK LAKE NEAR RIMROCK01-18-2022INFLOW (KAF)112112100
88RRHW1COLUMBIA-ROCKY REACH DAM01-18-2022INFLOW (KAF)3042527171112
89SATI1ST MARIES-NEAR SANTA01-18-2022DISCHARGE (KAF)12113093
90SERO3JOHN DAY-AT SERVICE CK01-18-2022DISCHARGE (KAF)54974074
91SHYI1SNAKE-NEAR SHELLEY01-18-2022DISCHARGE (KAF)11531046110
92SIFI1SNAKE-AB EAGLE ROCK NR IDAHO FALLS01-18-2022DISCHARGE (KAF)12141076113
93SJMI1ST JOE-AT ST MARIES01-18-2022STAGE (FT)MMM
94SNAI1SNAKE-AT BLACKFOOT01-18-2022DISCHARGE (KAF)992800124
95SPDI1CLEARWATER-AT SPALDING01-18-2022DISCHARGE (KAF)52824171127
96SPOW1SPOKANE-AT SPOKANE01-18-2022DISCHARGE (KAF)23322307101
97SRGM8CLARK FORK-AT ST REGIS01-18-2022DISCHARGE (KAF)1154153675
98STRM8ST. REGIS-NEAR ST. REGIS01-18-2022DISCHARGE (KAF)13815788
99SWAI1SNAKE-BELOW SWAN FALLS01-18-2022DISCHARGE (KAF)1734188392
100TCHW1WALLA WALLA-NEAR TOUCHET01-18-2022DISCHARGE (KAF)18523280
101TDAO3COLUMBIA-THE DALLES DAM01-18-2022INFLOW (KAF)4672445045104
102TEAI1TETON-NEAR ST. ANTHONY01-18-2022DISCHARGE (KAF)11915079
103TNAW1TEANAWAY-BELOW FORKS01-18-2022DISCHARGE (KAF)148114130
104TONW1OKANOGAN-NEAR TONASKET01-18-2022DISCHARGE (KAF)783653120
105TRYO3GRANDE RONDE-TROY01-18-2022DISCHARGE (KAF)94099994
106UMAO3UMATILLA-NEAR UMATILLA01-18-2022DISCHARGE (KAF)223182123
107UMTW1YAKIMA-AT UMTANUM01-18-2022DISCHARGE (KAF)560514109
108UNDW1WHITE SALMON-NEAR UNDERWOOD01-18-2022DISCHARGE (KAF)358337106
109WANW1COLUMBIA-WANAPUM DAM01-18-2022INFLOW (KAF)3109528046111
110WEII1SNAKE-AT WEISER01-18-2022DISCHARGE (KAF)3423358695
111WELW1COLUMBIA-WELLS DAM01-18-2022INFLOW (KAF)2996726658112
112WGCM8MF FLATHEAD-NEAR WEST GLACIER01-18-2022DISCHARGE (KAF)35753367
113WHBI1SALMON-AT WHITEBIRD01-18-2022DISCHARGE (KAF)1625234969
114WRMO3MALHEUR-WARM SPRINGS DAM01-18-2022INFLOW (KAF)537571
115WSRI1WEISER-NEAR WEISER01-18-2022DISCHARGE (KAF)368360102